Dewpoint
9 9 9 8 9 10 10 10 10 10 10 10 10 10 10 7 6 5 1 0 1 0 2 2 2 4 4 5 5 5 4 2
9 9 8 8 9 9 10 10 10 9 10 10 9 9 8 8 7 4 2 1 2 4 4 4 5 5 5 6 6 6 6 5
8 9 8 9 9 9 9 9 9 9 9 10 10 9 7 7 6 5 3 3 4 5 4 5 4 4 4 5 6 6 6 6
8 8 9 9 9 9 9 9 10 9 9 9 9 8 8 8 7 7 3 3 2 3 3 3 4 4 4 5 5 5 7 6
7 8 8 9 8 8 9 9 9 9 9 9 8 8 7 7 7 5 5 3 6 4 4 4 4 3 4 3 4 4 6 7
7 8 8 8 9 8 8 8 9 9 8 8 8 8 9 8 6 4 4 6 5 4 4 3 3 3 3 5 4 4 6 8
6 7 8 8 9 9 8 8 8 9 9 8 8 8 8 8 7 4 3 5 4 3 3 3 3 3 3 3 4 6 6 5
7 7 7 7 7 8 8 8 8 8 9 9 8 8 7 8 7 6 6 5 4 4 4 3 3 4 5 6 5 4 4 6
7 6 8 7 7 6 6 8 8 8 8 9 9 9 7 8 7 7 6 5 6 5 5 5 4 7 6 6 3 5 7 7
6 7 7 8 7 8 6 7 8 8 8 8 9 8 9 8 7 8 8 7 7 7 7 5 6 6 6 4 7 7 7 7
5 7 7 8 7 6 3 5 7 8 8 8 8 8 9 8 8 7 7 7 7 7 7 4 6 6 6 7 7 7 4 4
5 6 7 8 8 7 1 -1 2 5 8 8 8 9 8 8 8 8 7 7 7 7 6 5 5 6 7 7 7 4 3 5
6 6 7 8 8 8 5 0 -1 0 6 8 7 8 8 8 8 8 8 8 8 8 7 7 7 8 7 7 2 2 3 4
5 6 7 7 8 8 8 6 2 0 3 3 4 3 3 4 5 6 7 7 7 8 8 8 6 6 7 2 2 5 8 9
3 5 6 7 8 8 8 8 7 5 3 4 2 1 1 2 1 2 4 2 2 3 2 4 4 5 7 8 7 8 9 9
1 3 5 6 7 7 7 8 7 7 7 6 4 4 3 3 2 2 1 2 2 2 5 8 9 8 8 8 9 9 9 9
-2 -1 3 5 5 1 2 2 5 6 7 7 8 7 6 5 5 4 5 6 7 8 8 8 7 9 9 9 9 9 9 9
-2 -2 -1 2 -1 2 7 4 4 4 5 6 6 7 8 8 8 8 8 8 8 8 8 9 9 9 9 9 9 8 8 7
-2 -2 -1 -1 -2 3 4 6 4 5 5 6 7 7 7 8 8 8 8 8 9 9 9 9 9 9 9 8 8 7 6 5
Wind_Speed
6 6 5 6 6 9 9 7 7 8 13 34 36 48 44 47 42 41 39 37 33 32 30 28 26 22 21 20 18 16 12 11
8 7 7 7 8 11 13 9 14 14 20 27 25 31 42 42 41 44 42 35 30 28 27 24 20 16 21 17 17 15 14 14
11 9 9 10 11 12 13 12 11 17 22 27 32 35 42 40 40 40 41 36 33 30 24 23 21 22 17 21 18 17 16 17
15 13 12 15 15 15 16 15 14 18 23 27 29 37 42 41 43 42 36 39 35 33 32 29 31 28 25 22 21 21 15 17
17 16 16 16 17 17 17 18 18 20 22 28 32 35 37 44 45 46 41 44 37 34 32 32 28 25 26 26 27 23 19 16
20 18 16 17 18 19 19 19 21 24 24 29 33 34 24 33 43 49 44 37 33 29 30 29 26 28 30 26 27 25 22 21
19 18 17 17 19 19 19 21 23 24 29 29 33 35 32 29 35 47 49 40 39 38 33 31 30 33 31 28 29 25 25 26
24 22 21 20 21 22 20 21 24 26 27 31 33 32 35 27 34 40 38 44 47 46 43 46 40 35 31 29 28 27 27 27
27 25 22 21 21 22 23 23 23 28 29 29 28 27 31 28 33 32 40 43 39 41 39 39 38 32 35 32 30 28 25 26
27 27 25 23 23 23 24 24 24 26 29 29 29 29 30 27 27 31 31 35 36 38 37 41 39 37 35 32 28 31 29 29
25 26 28 26 25 23 23 24 25 25 26 28 28 30 32 30 30 30 32 33 33 31 34 43 39 36 35 31 32 30 36 35
21 24 24 26 25 26 26 26 26 27 26 27 28 29 32 33 32 32 32 32 34 36 38 40 45 41 36 34 34 41 39 40
17 20 23 25 27 26 29 28 29 28 27 28 29 29 29 32 35 33 32 35 34 34 33 34 36 37 37 42 48 47 45 54
15 18 22 24 26 27 28 30 31 30 29 29 30 31 32 33 34 34 35 35 34 32 33 33 34 35 35 42 41 45 47 43
15 18 21 23 25 27 28 29 30 31 32 31 32 32 32 31 30 30 32 33 33 32 32 31 32 32 32 34 39 40 39 39
17 18 20 22 24 25 25 25 28 30 31 32 33 31 31 30 30 31 32 32 32 31 30 28 28 29 32 35 36 33 30 29
9 15 19 23 25 27 27 26 25 26 27 28 25 26 28 29 29 29 28 27 25 25 25 28 31 31 29 25 24 29 30 35
16 16 20 24 27 27 24 27 26 25 23 22 22 22 22 23 23 22 22 21 22 25 26 26 28 27 28 30 30 30 29 29
20 22 18 18 21 22 25 23 25 25 24 22 22 21 21 21 21 21 21 20 21 23 22 22 24 24 26 25 26 25 22 20
Wind_Direction
206 191 200 211 196 197 203 187 178 169 154 147 151 167 164 162 162 169 173 178 179 177 175 173 171 171 178 179 185 187 182 186
190 181 196 195 184 192 200 177 167 168 162 154 161 155 160 160 170 174 177 172 183 187 178 176 177 185 196 195 197 204 201 203
189 183 185 188 192 188 195 192 177 178 172 168 168 166 162 165 169 177 181 179 181 186 192 184 189 201 207 210 211 219 217 220
187 189 188 186 196 194 195 196 199 185 182 183 180 171 172 171 176 178 180 186 190 200 194 201 203 205 211 216 223 224 216 231
187 192 189 189 197 199 196 191 196 198 190 187 186 180 179 185 184 175 181 187 197 200 202 204 210 216 219 223 228 230 223 231
187 192 193 187 190 195 195 195 195 201 194 197 190 185 184 188 189 186 190 188 189 196 205 208 218 223 228 226 233 233 234 235
191 185 189 189 189 189 193 196 200 199 202 201 198 199 189 195 196 196 198 204 202 206 210 221 225 231 230 237 241 243 245 250
187 185 190 191 193 192 192 192 197 199 200 207 207 208 201 200 197 201 197 205 209 213 223 220 230 231 231 236 243 248 253 255
191 187 192 195 196 198 197 194 194 197 197 202 199 201 196 207 206 205 210 210 212 215 220 225 229 230 235 241 246 252 254 259
195 187 193 195 196 200 200 197 197 199 199 197 201 199 200 202 204 206 206 209 214 218 223 230 231 234 238 246 250 255 261 265
197 197 191 194 197 201 207 205 202 200 200 201 203 203 206 208 210 209 211 214 215 220 227 232 234 239 245 247 253 258 268 268
199 202 202 197 195 197 208 210 207 205 204 205 206 209 211 213 216 218 218 221 223 230 236 237 239 244 246 248 251 260 268 273
197 202 203 203 202 201 207 211 214 213 208 208 210 210 212 217 221 222 224 228 229 232 235 238 241 245 249 250 258 261 263 264
189 193 200 208 209 208 210 216 217 216 214 215 216 218 219 221 223 226 229 231 233 236 237 239 243 245 247 257 262 267 278 273
197 195 197 203 211 213 213 215 218 216 216 218 222 224 225 228 231 232 234 239 243 245 248 248 251 254 255 261 270 277 277 275
204 204 206 204 208 211 213 212 215 216 216 219 224 225 229 230 232 237 242 245 248 252 253 254 254 257 263 271 273 276 277 278
236 227 218 214 212 213 212 213 213 214 216 219 220 225 230 233 238 240 244 246 245 247 250 255 262 267 266 270 272 270 270 271
265 252 237 224 223 216 211 209 208 210 210 214 217 219 224 226 232 235 238 240 244 248 252 258 263 262 265 265 265 269 266 263
284 272 252 243 236 223 211 208 207 205 204 206 207 210 214 219 226 232 238 244 246 247 249 252 254 258 260 264 265 264 262 258
Height
1454 1456 1456 1458 1459 1461 1463 1465 1467 1468 1470 1467 1468 1472 1477 1486 1496 1507 1517 1524 1530 1532 1537 1541 1545 1549 1554 1558 1562 1564 1567 1570
1453 1454 1454 1456 1458 1461 1463 1465 1467 1469 1474 1474 1477 1480 1486 1493 1502 1510 1517 1523 1529 1534 1537 1541 1545 1548 1555 1559 1561 1564 1566 1568
1451 1453 1453 1455 1456 1459 1463 1465 1466 1469 1474 1478 1480 1485 1491 1497 1503 1512 1518 1522 1527 1533 1538 1542 1546 1552 1554 1557 1559 1562 1565 1566
1447 1450 1451 1452 1456 1458 1460 1463 1466 1469 1473 1478 1483 1487 1493 1498 1504 1509 1516 1521 1529 1532 1537 1540 1545 1548 1551 1555 1558 1561 1563 1564
1443 1446 1448 1450 1453 1457 1459 1462 1465 1468 1472 1478 1482 1485 1491 1497 1501 1506 1512 1518 1524 1530 1533 1537 1542 1544 1548 1552 1555 1557 1559 1562
1438 1442 1445 1447 1451 1455 1458 1460 1463 1467 1471 1476 1482 1487 1493 1496 1501 1505 1510 1515 1520 1525 1530 1534 1537 1541 1545 1548 1550 1552 1554 1557
1437 1439 1444 1446 1448 1452 1455 1458 1461 1465 1469 1474 1479 1484 1490 1494 1500 1504 1507 1512 1517 1522 1527 1530 1534 1538 1541 1544 1546 1548 1550 1551
1432 1435 1440 1444 1444 1448 1453 1456 1459 1463 1467 1472 1476 1481 1487 1493 1497 1502 1506 1510 1515 1520 1523 1526 1529 1534 1536 1539 1541 1543 1545 1547
1426 1429 1436 1440 1442 1445 1449 1453 1457 1460 1465 1470 1475 1480 1485 1490 1494 1499 1501 1506 1511 1516 1520 1523 1525 1529 1532 1534 1536 1538 1541 1540
1422 1423 1430 1436 1439 1442 1445 1449 1455 1458 1462 1467 1471 1476 1481 1485 1491 1495 1498 1502 1507 1511 1515 1518 1521 1524 1526 1529 1530 1532 1534 1532
1418 1421 1421 1428 1433 1438 1442 1446 1450 1455 1459 1463 1467 1471 1476 1482 1486 1489 1493 1497 1501 1507 1510 1512 1515 1518 1520 1524 1524 1524 1524 1524
1413 1418 1422 1424 1427 1431 1435 1440 1445 1449 1454 1458 1462 1467 1471 1476 1480 1484 1487 1492 1495 1499 1503 1506 1509 1511 1514 1515 1515 1514 1514 1514
1409 1414 1419 1422 1424 1427 1427 1433 1438 1444 1449 1453 1457 1461 1465 1469 1472 1477 1482 1485 1489 1493 1496 1498 1500 1502 1504 1503 1504 1503 1502 1499
1405 1408 1412 1417 1420 1422 1424 1427 1431 1438 1443 1447 1451 1455 1459 1462 1466 1471 1475 1478 1482 1485 1487 1489 1491 1493 1494 1493 1494 1493 1492 1489
1402 1404 1406 1411 1415 1417 1419 1422 1426 1430 1435 1440 1444 1449 1453 1457 1461 1464 1468 1471 1475 1478 1480 1482 1483 1484 1485 1485 1484 1483 1482 1479
1398 1399 1401 1403 1408 1411 1414 1417 1420 1424 1428 1432 1437 1443 1448 1451 1455 1457 1460 1464 1467 1470 1472 1474 1475 1476 1476 1476 1475 1474 1473 1472
1397 1398 1398 1398 1400 1403 1407 1411 1414 1418 1422 1426 1433 1437 1441 1444 1447 1451 1454 1457 1460 1462 1464 1466 1467 1466 1465 1466 1466 1466 1465 1465
1390 1392 1392 1393 1394 1396 1402 1405 1409 1412 1417 1421 1425 1429 1434 1438 1441 1445 1448 1451 1453 1454 1454 1456 1457 1457 1458 1458 1458 1457 1457 1456
1384 1385 1388 1386 1390 1392 1395 1399 1402 1406 1411 1415 1419 1422 1427 1431 1434 1438 1441 1444 1447 1448 1449 1450 1450 1451 1451 1451 1451 1451 1451 1450